Back to catalog

NAVSTAR 61

USA 199

AliveNavigationHEO
NORAD 32384·PAYLOAD·🇺🇸 United States

Launched Dec 20, 2007 from Cape Canaveral Space Force Station

Loading…

Next Passes (next 24 hours)

TLE

FreshSource: CelesTrak SupGP

Epoch: Sep 16, 2026, 16:44 UTC

1 32384C 07062A   26259.69756944  .00000000  00000+0  00000+0 0  2596
2 32384  54.9639 270.4668 0035891 170.2361 124.8404  2.00565463    12

Track NAVSTAR 61 in real time with AllMySat

Download on the App Store